EHI
0 0 0 0 0 0 0 0 0 0 0 0 0 0 0 0 0 0 0 0 0 0 0 0 0 0 0 0 0 0 0 0 0 0 0 0 0 0 0 0 0 0 0 0
0 0 0 0 0 0 0 0 0 0 0 0 0 0 0 0 0 0 0 0 0 0 0 0 0 0 0 0 0 0 0 0 0 0 0 0 0 0 0 0 0 0 0 0
0 0 0 0 0 0 0 0 0 0 0 0 0 0 0 0 0 0 0 0 0 0 0 0 0 0 0 0 0 0 0 0 0 0 0 0 0 0 0 0 0 0 0 0
0 0 0 0 0 0 0 0 0 0 0 0 0 0 0 0 0 0 0 0 0 0 0 0 0 0 0 0 0 0 0 0 0 0 0 0 0 0 0 0 0 0 0 0
0 0 0 0 0 0 0 0 0 0 0 0 0 0 0 0 0 0 0 0 0 0 0 0 0 0 0 0 0 0 0 0 0 0 0 0 0 0 0 0 0 0 0 0
0 0 0 0 0 0 0 0 0 0 0 0 0 0 0 0 0 0 0 0 0 0 0 0 0 0 0 0 0 0 0 0 0 0 0 0 0 0 0 0 0 0 0 0
0 0 0 0 0 0 0 0 0 0 0 0 0 0 0 0 0 0 0 0 0 0 0 0 0 0 0 0 0 0 0 0 0 0 0 0 0 0 0 0 0 0 0 0
0 0 0 0 0 0 0 0 0 0 0 0 0 0 0 0 0 0 0 0 0 0 0 0 0 0 0 0 0 0 0 0 0 0 0 0 0 0 0 0 0 0 0 0
0 0 0 0 0 0 0 0 0 0 0 0 0 0 0 0 0 0 0 0 0 0 0 0 0 0 0 0 0 0 0 0 0 0 0 0 0 0 0 0 0 0 0 0
0 0 0 0 0 0 0 0 0 0 0 0 0 0 0 0 0 0 0 0 0 0 0 0 0 0 0 0 0 0 0 0 0 0 0 0 0 0 0 0 0 0 0 0
0 0 0 0 0 0 0 0 0 0 0 0 0 0 0 0 0 0 0 0 0 0 0 0 0 0 0 0 0 0 0 0 0 0 0 0 0 0 0 0 0 0 0 0
0 0 0 0 0 0 0 0 0 0 0 0 0 0 0 0 0 0 0 0 0 0 0 0 0 0 0 0 0 0 0 0 0 0 0 0 0 0 0 0 0 0 0 0
0 0 0 0 0 0 0 0 0 0 0 0 0 0 0 0 0 0 0 0 0 0 0 0 0 0 0 0 0 0 0 0 0 0 0 0 0 0 0 0 0 0 0 0
0 0 0 0 0 0 0 0 0 0 0 0 0 0 0 0 0 0 0 0 0 0 0 0 0 0 0 0 0 0 0 0 0 0 0 0 0 0 0 0 0 0 0 0
0 0 0 0 0 0 0 0 0 0 0 0 0 0 0 0 0 0 0 0 0 0 0 0 0 0 0 0 0 0 0 0 0 0 0 0 0 0 0 0 0 0 0 0
0 0 0 0 0 0 0 0 0 0 0 0 0 0 0 0 0 0 0 0 0 0 0 0 0 0 0 0 0 0 0 0 0 0 0 0 0 0 0 0 0 0 0 0
0 0 0 0 0 0 0 0 0 0 0 0 0 0 0 0 0 0 0 0 0 0 0 0 0 0 0 0 0 0 0 0 0 0 0 0 0 0 0 0 0 0 0 0
0 0 0 0 0 0 0 0 0 0 0 0 0 0 0 0 0 0 0 0 0 0 0 0 0 0 0 0 0 0 0 0 0 0 0 0 0 0 0 0 0 0 0 0
0 0 0 0 0 0 0 0 0 0 0 0 0 0 0 0 0 0 0 0 0 0 0 0 0 0 0 0 0 0 0 0 0 0 0 0 0 0 0 0 0 0 0 0
0 0 0 0 0 0 0 0 0 0 0 0 0 0 0 0 0 0 0 0 0 0 0 0 0 0 0 0 0 0 0 0 0 0 0 0 0 0 0 0 0 0 0 0
0 0 0 0 0 0 0 0 0 0 0 0 0 0 0 0 0 0 0 0 0 0 0 0 0 0 0 0 0 0 0 0 0 0 0 0 0 0 0 0 0 0 0 0
0 0 0 0 0 0 0 0 0 0 0 0 0 0 0 0 0 0 0 0 0 0 0 0 0 0 0 0 0 0 0 0 0 0 0 0 0 0 0 0 0 0 0 0
0 0 0 0 0 0 0 0 0 0 0 0 0 0 0 0 0 0 0 0 0 0 0 0 0 0 0 0 0 0 0 0 0 0 0 0 0 0 0 0 0 0 0 0
0 0 0 0 0 0 0 0 0 0 0 0 0 0 0 0 0 0 0 0 0 0 0 0 0 0 0 0 0 0 0 0 0 0 0 0 0 0 0 0 0 0 0 0
0 0 0 0 0 0 0 0 0 0 0 0 0 0 0 0 0 0 0 0 0 0 0 0 0 0 0 0 0 0 0 0 0 0 0 0 0 0 0 0 0 0 0 0
0 0 0 0 0 0 0 0 0 0 0 0 0 0 0 0 0 0 0 0 0 0 0 0 0 0 0 0 0 0 0 0 0 0 0 0 0 0 0 0 0 0 0 0
0 0 0 0 0 0 0 0 0 0 0 0 0 0 0 0 0 0 0 0 0 0 0 0 0 0 0 0 0 0 0 0 0 0 0 0 0 0 0 0 0 0 0 0
Wind_Speed
6 1 4 6 9 11 12 11 8 8 9 6 5 7 7 8 8 9 10 10 9 8 7 7 7 6 5 4 4 3 2 2 3 3 3 4 5 6 6 7 7 8 8 9
6 4 4 6 7 9 12 12 13 12 13 7 4 2 4 7 9 9 10 10 9 8 8 7 7 6 5 4 3 2 2 3 3 3 4 5 6 6 7 7 8 8 9 9
5 4 4 9 10 12 11 10 9 13 12 4 2 2 3 5 7 8 9 9 9 8 7 7 6 5 4 3 3 2 2 3 4 4 5 5 6 7 7 8 8 9 8 9
3 3 11 7 4 8 11 12 11 9 6 4 3 2 2 3 4 6 9 9 8 7 7 6 5 5 3 3 2 2 3 4 4 4 5 6 6 7 8 7 8 8 8 9
4 6 9 6 5 5 6 7 7 8 5 3 6 4 1 2 4 6 8 9 8 7 7 6 5 4 3 2 2 3 4 4 4 4 5 6 7 8 8 7 7 8 8 9
5 6 8 3 2 4 3 6 5 6 4 7 7 3 3 5 8 9 10 9 8 7 6 5 4 4 2 2 3 4 4 4 4 4 6 7 8 8 7 7 8 8 8 9
7 8 9 3 4 6 6 6 1 2 5 7 6 4 6 9 9 10 9 9 7 6 5 4 3 3 2 3 4 4 3 4 5 5 7 8 8 7 7 7 8 8 9 9
8 9 10 6 7 8 6 3 3 3 4 6 7 8 9 9 9 9 8 7 6 5 3 3 2 2 2 4 4 3 3 5 6 7 7 6 7 7 7 7 8 8 9 9
9 9 3 9 6 3 4 4 4 4 6 9 8 8 8 8 8 7 7 6 4 4 3 2 2 2 3 4 3 4 5 6 7 7 7 6 7 7 7 6 6 7 7 9
4 4 5 5 4 3 3 3 4 6 7 9 9 9 8 8 7 6 5 5 4 3 2 2 2 2 3 4 4 4 6 6 6 7 7 6 6 6 6 6 7 7 8 9
5 2 3 4 5 5 4 5 5 6 6 8 10 9 8 7 6 6 5 4 3 2 2 2 2 3 4 4 4 5 6 6 6 6 7 6 6 6 7 7 9 11 9 8
5 4 5 4 5 6 7 6 7 7 6 6 8 9 7 6 5 5 5 4 3 2 2 3 3 4 5 5 5 5 6 6 5 5 5 6 7 8 12 15 21 23 22 20
2 3 4 5 5 5 6 7 7 7 8 8 7 7 7 6 5 4 4 3 3 3 3 4 4 5 6 5 5 5 6 6 5 6 6 6 7 8 10 12 17 20 22 24
4 5 3 3 4 5 6 7 7 7 7 7 7 7 6 5 4 4 3 3 2 2 3 4 5 6 6 5 5 6 6 8 8 6 6 6 7 7 8 10 11 9 12 20
4 4 4 5 6 6 7 8 8 7 7 6 6 6 6 5 4 3 2 2 2 3 5 5 6 7 6 5 5 6 6 6 6 6 7 7 7 8 8 10 11 11 9 11
5 5 6 7 8 8 8 8 8 7 7 6 6 5 5 4 3 2 2 3 3 5 6 6 7 8 6 6 6 6 6 13 13 8 7 7 8 8 9 9 10 10 10 9
8 7 7 8 8 8 7 6 7 7 6 6 5 5 4 3 2 3 4 4 4 5 6 7 8 8 7 6 6 5 6 8 15 11 8 8 8 9 9 9 10 10 9 12
5 6 7 8 8 8 7 6 7 7 6 5 5 4 3 3 3 4 4 4 5 6 7 8 8 7 6 6 6 6 6 7 7 8 8 8 10 9 9 10 10 11 10 11
6 7 7 7 7 8 7 6 6 6 5 5 4 3 2 3 3 4 4 5 6 9 8 8 11 8 7 8 10 6 7 8 9 9 9 14 13 9 9 10 10 10 10 9
8 8 9 8 8 8 7 6 6 5 4 4 3 2 3 4 4 5 5 6 7 8 7 8 8 7 7 8 12 6 7 8 10 10 10 9 10 10 9 9 9 10 9 9
9 9 9 8 7 7 6 5 5 4 3 3 3 4 5 5 5 5 5 8 8 8 8 12 7 6 6 9 12 7 7 9 10 10 10 10 10 10 9 9 9 10 10 10
8 8 8 7 7 5 4 3 3 2 2 2 3 4 5 6 6 7 8 8 9 11 8 5 5 9 13 15 7 7 8 10 10 9 9 9 9 9 9 9 10 10 10 9
7 7 7 6 5 4 3 2 1 2 3 4 5 5 6 6 5 6 8 6 6 11 8 6 11 18 22 13 7 8 9 10 10 9 9 8 8 9 9 10 10 10 10 10
6 6 5 4 4 2 0 2 2 3 4 5 6 6 7 6 6 6 7 11 13 14 8 11 19 22 22 9 7 8 8 9 9 9 9 8 8 9 9 9 9 9 10 11
5 4 3 2 1 1 2 2 3 4 5 5 6 7 6 5 6 6 6 7 13 15 8 12 20 21 13 7 7 8 8 9 10 10 8 8 9 9 9 9 9 10 10 10
3 2 1 1 2 2 2 2 3 3 4 4 5 4 4 4 6 6 6 7 10 14 10 7 8 11 7 7 8 8 8 9 10 9 8 9 10 10 10 9 11 10 10 10
1 1 0 1 2 2 2 3 3 4 4 5 6 5 5 5 5 6 8 7 7 7 7 7 6 7 7 7 8 8 8 8 8 8 8 8 9 9 9 10 10 10 10 10
Wind_Direction
265 235 165 195 198 202 213 225 235 246 254 254 217 200 187 175 168 161 159 159 160 158 154 149 146 143 141 143 143 153 188 231 255 269 285 288 287 285 284 283 282 279 279 277
262 246 236 238 226 217 220 229 243 259 266 269 285 176 161 165 167 168 165 162 157 152 147 147 145 143 143 151 156 162 210 243 256 267 274 275 277 280 281 280 279 278 276 276
249 245 266 248 220 223 230 226 223 242 252 260 240 188 181 172 172 171 161 154 152 148 143 140 139 140 151 158 155 182 232 252 259 263 269 273 278 282 282 281 280 280 279 279
223 221 238 235 189 212 226 235 229 238 242 214 191 139 106 128 154 156 147 142 139 134 130 128 127 134 142 150 175 218 242 253 258 262 268 273 276 278 279 277 278 281 284 284
191 229 260 248 210 186 209 246 228 236 236 154 108 83 57 112 122 132 131 128 126 125 125 126 134 142 147 179 220 243 253 258 263 268 274 278 278 276 276 279 283 284 284 285
196 215 238 230 188 157 146 262 240 216 185 139 124 150 215 129 107 104 106 108 112 115 120 131 144 143 162 219 245 256 259 263 274 281 280 278 275 275 277 280 280 282 283 281
213 228 250 197 152 122 175 234 142 131 141 147 163 176 139 115 106 106 107 110 114 119 129 144 146 151 203 241 253 259 269 280 281 277 274 273 274 275 278 278 280 281 284 283
201 225 240 160 159 187 202 146 129 125 132 131 118 111 116 115 116 116 117 121 125 129 139 149 159 181 233 253 260 273 282 281 279 276 276 279 278 278 278 280 285 285 287 288
198 214 208 164 178 159 125 140 146 142 131 130 131 132 127 126 127 129 132 134 134 141 152 177 199 210 246 263 275 282 282 279 278 279 277 277 278 282 284 282 281 284 285 287
231 198 158 152 125 132 136 135 134 136 137 139 141 141 139 140 139 138 137 140 142 147 171 218 241 256 259 270 275 278 278 279 278 281 281 280 279 277 279 279 280 283 285 288
236 202 139 179 182 165 149 130 125 127 137 144 140 142 144 144 144 143 140 141 145 161 202 244 266 271 271 274 278 278 277 277 280 279 279 281 277 273 278 268 275 287 284 281
211 186 179 187 171 158 152 155 150 139 131 130 137 140 138 140 139 138 141 143 158 195 230 254 267 274 277 276 273 274 277 278 276 276 277 278 283 286 278 280 291 293 293 294
134 89 97 110 124 140 150 151 146 143 142 136 132 132 133 132 133 134 144 162 191 218 241 261 272 274 275 275 273 270 270 274 275 275 276 277 278 283 290 292 289 292 295 298
125 116 125 145 147 138 134 130 124 120 125 129 128 126 125 126 131 144 166 188 207 235 255 264 270 272 276 280 278 273 272 277 280 273 271 272 275 278 283 291 297 291 291 296
179 165 156 139 130 124 124 124 126 130 129 124 123 127 131 137 152 171 186 200 233 253 260 266 271 275 281 283 280 275 275 273 273 271 271 273 276 278 280 283 287 292 292 293
158 140 137 142 145 142 142 144 145 145 140 133 133 136 138 141 156 190 220 227 242 255 261 265 268 271 275 275 275 273 271 280 285 282 277 278 278 279 281 282 285 287 289 292
154 167 167 163 157 155 155 151 145 142 136 135 137 133 132 142 190 234 245 245 246 253 259 262 266 269 267 265 266 269 270 278 285 286 279 278 279 279 279 280 282 283 284 289
166 163 156 155 152 146 139 130 126 128 133 133 130 137 157 188 225 247 259 269 274 273 268 263 263 267 265 266 266 266 270 272 273 275 278 279 280 278 279 280 281 283 286 292
125 122 120 120 125 127 126 124 124 124 127 132 142 165 197 226 242 255 265 269 270 275 273 265 275 275 269 268 277 268 270 275 278 278 279 283 286 281 279 279 281 283 287 290
106 105 104 102 103 111 117 120 121 124 130 135 147 192 239 251 254 260 263 260 254 255 263 272 275 267 266 267 279 269 269 275 279 282 281 279 280 281 280 281 283 285 287 287
108 107 107 107 105 105 112 119 122 129 139 157 191 227 246 258 260 260 264 272 269 261 265 276 273 267 269 275 283 273 273 276 279 281 281 282 282 283 283 284 286 289 289 289
108 108 107 106 106 103 103 107 119 139 178 223 238 245 255 264 265 262 253 257 268 275 276 266 265 277 286 290 280 276 277 279 280 280 280 280 282 284 286 287 287 289 289 287
103 104 104 104 107 105 92 100 155 198 226 239 246 251 254 257 257 265 276 267 265 280 282 267 280 289 294 293 281 279 279 280 280 280 280 280 282 283 285 286 286 288 288 288
96 95 96 96 95 96 139 251 238 235 242 250 251 251 255 265 268 256 258 279 286 289 283 283 291 294 298 291 281 279 280 280 280 280 280 280 280 281 283 284 286 287 288 288
100 103 108 114 129 206 234 250 265 266 262 259 259 256 249 243 256 269 269 275 285 293 287 288 294 297 296 284 281 281 281 278 282 285 282 285 286 286 285 285 286 288 288 288
106 116 146 189 210 229 243 250 257 261 266 273 273 267 265 263 266 273 275 275 276 286 287 282 283 288 282 279 280 282 282 288 291 288 284 285 285 285 285 286 286 287 287 287
98 121 228 280 269 248 242 248 259 268 269 272 279 279 277 280 279 279 280 280 281 280 280 280 279 278 280 281 282 282 283 284 283 283 284 284 285 285 286 286 287 286 287 287